TimeCDT,TemperatureF,Dew PointF,Humidity,Sea Level PressureIn,VisibilityMPH,Wind Direction,Wind SpeedMPH,Gust SpeedMPH,PrecipitationIn,Events,Conditions,WindDirDegrees,DateUTC
12:15 AM,79.7,77.0,91,30.00,10.0,ENE,3.5,-,N/A,,Clear,70,2013-09-17 05:15:00
12:35 AM,79.5,76.8,91,29.99,10.0,ENE,4.6,-,N/A,,Clear,60,2013-09-17 05:35:00
12:55 AM,79.0,76.6,92,29.99,10.0,East,3.5,-,N/A,,Clear,80,2013-09-17 05:55:00
1:15 AM,79.2,76.8,92,29.98,10.0,East,4.6,-,N/A,,Clear,80,2013-09-17 06:15:00
1:35 AM,79.7,77.0,91,29.98,10.0,East,5.8,-,N/A,,Clear,80,2013-09-17 06:35:00
1:55 AM,79.9,77.0,91,29.98,10.0,ENE,4.6,-,N/A,,Clear,70,2013-09-17 06:55:00
2:15 AM,79.5,76.8,91,29.99,10.0,Calm,Calm,-,N/A,,Clear,0,2013-09-17 07:15:00
2:35 AM,79.0,76.6,92,29.99,10.0,Calm,Calm,-,N/A,,Clear,0,2013-09-17 07:35:00
2:55 AM,77.9,76.1,94,29.98,7.0,Calm,Calm,-,N/A,,Scattered Clouds,0,2013-09-17 07:55:00
3:15 AM,77.5,76.1,95,29.98,7.0,Calm,Calm,-,N/A,,Scattered Clouds,0,2013-09-17 08:15:00
3:35 AM,77.7,76.1,95,29.98,7.0,NE,3.5,-,N/A,,Scattered Clouds,50,2013-09-17 08:35:00
3:55 AM,78.3,76.8,95,29.97,7.0,NE,4.6,-,N/A,,Mostly Cloudy,50,2013-09-17 08:55:00
4:15 AM,78.4,76.8,95,29.97,7.0,NE,4.6,-,N/A,,Scattered Clouds,40,2013-09-17 09:15:00
4:35 AM,78.8,77.0,94,29.97,7.0,NE,5.8,-,N/A,,Clear,40,2013-09-17 09:35:00
4:55 AM,78.8,77.0,94,29.96,7.0,NE,5.8,-,N/A,,Clear,50,2013-09-17 09:55:00
5:15 AM,77.9,76.3,95,29.96,7.0,ENE,5.8,-,N/A,,Clear,60,2013-09-17 10:15:00
5:35 AM,77.9,76.3,95,29.96,7.0,ENE,4.6,-,N/A,,Clear,60,2013-09-17 10:35:00
5:55 AM,77.5,76.1,95,29.97,7.0,NE,3.5,-,N/A,,Clear,50,2013-09-17 10:55:00
6:15 AM,77.2,75.9,96,29.98,7.0,North,3.5,-,N/A,,Clear,350,2013-09-17 11:15:00
6:35 AM,77.0,75.7,96,29.98,5.0,North,4.6,-,N/A,,Clear,10,2013-09-17 11:35:00
6:55 AM,76.8,75.7,96,29.98,5.0,North,4.6,-,N/A,,Clear,10,2013-09-17 11:55:00
7:15 AM,77.0,75.7,96,29.99,5.0,NNE,4.6,-,N/A,,Clear,20,2013-09-17 12:15:00
7:35 AM,77.4,76.3,96,29.99,5.0,NNE,3.5,-,N/A,,Clear,30,2013-09-17 12:35:00
7:55 AM,78.3,76.8,95,30.00,7.0,NE,4.6,-,N/A,,Clear,40,2013-09-17 12:55:00
8:15 AM,79.3,77.5,94,30.00,10.0,NE,4.6,-,N/A,,Clear,50,2013-09-17 13:15:00
8:35 AM,80.8,78.1,91,30.01,10.0,NE,4.6,-,N/A,,Scattered Clouds,50,2013-09-17 13:35:00
8:55 AM,82.8,78.8,88,30.01,10.0,ENE,8.1,-,N/A,,Clear,70,2013-09-17 13:55:00
9:15 AM,84.9,78.6,81,30.02,10.0,ENE,8.1,-,N/A,,Clear,70,2013-09-17 14:15:00
9:35 AM,86.2,78.6,78,30.02,10.0,ENE,8.1,-,N/A,,Clear,70,2013-09-17 14:35:00
9:55 AM,87.1,79.0,77,30.02,10.0,ENE,9.2,-,N/A,,Scattered Clouds,70,2013-09-17 14:55:00
10:15 AM,88.0,78.4,73,30.03,10.0,East,11.5,-,N/A,,Scattered Clouds,80,2013-09-17 15:15:00
10:35 AM,87.3,78.1,74,30.03,10.0,ESE,9.2,-,N/A,,Mostly Cloudy,110,2013-09-17 15:35:00
10:55 AM,87.1,77.9,74,30.03,10.0,ESE,6.9,-,N/A,,Mostly Cloudy,120,2013-09-17 15:55:00
11:15 AM,87.6,78.3,74,30.03,10.0,ESE,8.1,-,N/A,,Mostly Cloudy,110,2013-09-17 16:15:00
11:35 AM,89.6,77.4,67,30.03,10.0,East,13.8,19.6,N/A,,Scattered Clouds,90,2013-09-17 16:35:00
11:55 AM,89.4,77.0,67,30.02,10.0,East,17.3,21.9,N/A,,Scattered Clouds,80,2013-09-17 16:55:00
12:15 PM,90.0,76.5,64,30.02,10.0,East,13.8,18.4,N/A,,Mostly Cloudy,90,2013-09-17 17:15:00
12:35 PM,91.6,76.3,61,30.01,10.0,East,11.5,-,N/A,,Mostly Cloudy,100,2013-09-17 17:35:00
12:55 PM,91.2,75.4,60,30.01,10.0,East,10.4,21.9,N/A,,Scattered Clouds,100,2013-09-17 17:55:00
1:15 PM,90.0,74.8,61,30.00,10.0,East,13.8,17.3,N/A,,Scattered Clouds,80,2013-09-17 18:15:00
1:35 PM,91.4,75.0,59,29.99,10.0,East,16.1,-,N/A,,Scattered Clouds,100,2013-09-17 18:35:00
1:55 PM,91.8,74.8,58,29.98,10.0,East,15.0,-,N/A,,Clear,90,2013-09-17 18:55:00
2:15 PM,91.9,75.0,58,29.98,10.0,ESE,13.8,19.6,N/A,,Clear,120,2013-09-17 19:15:00
2:35 PM,90.3,75.2,61,29.97,10.0,ESE,9.2,-,N/A,,Clear,110,2013-09-17 19:35:00
2:55 PM,89.8,75.7,63,29.96,10.0,ESE,13.8,18.4,N/A,,Clear,110,2013-09-17 19:55:00
3:15 PM,89.2,76.5,66,29.96,10.0,East,12.7,19.6,N/A,,Scattered Clouds,100,2013-09-17 20:15:00
3:35 PM,88.5,76.5,67,29.95,10.0,ESE,13.8,-,N/A,,Scattered Clouds,110,2013-09-17 20:35:00
3:55 PM,88.0,75.9,67,29.95,10.0,ESE,12.7,-,N/A,,Clear,110,2013-09-17 20:55:00
4:15 PM,88.5,75.7,66,29.95,10.0,ESE,12.7,17.3,N/A,,Clear,110,2013-09-17 21:15:00
4:35 PM,88.9,76.5,67,29.94,10.0,East,13.8,17.3,N/A,,Clear,100,2013-09-17 21:35:00
4:55 PM,88.7,76.6,67,29.94,10.0,East,12.7,16.1,N/A,,Scattered Clouds,90,2013-09-17 21:55:00
5:15 PM,88.2,76.6,69,29.94,10.0,East,10.4,-,N/A,,Scattered Clouds,100,2013-09-17 22:15:00
5:35 PM,87.8,77.0,70,29.93,10.0,East,10.4,16.1,N/A,,Scattered Clouds,100,2013-09-17 22:35:00
5:55 PM,87.8,76.6,69,29.93,10.0,East,11.5,18.4,N/A,,Scattered Clouds,100,2013-09-17 22:55:00
6:15 PM,86.7,76.5,71,29.93,10.0,East,10.4,-,N/A,,Scattered Clouds,100,2013-09-17 23:15:00
6:35 PM,86.2,76.6,73,29.93,10.0,East,6.9,-,N/A,,Scattered Clouds,100,2013-09-17 23:35:00
6:55 PM,85.3,76.6,75,29.94,10.0,East,9.2,-,N/A,,Clear,90,2013-09-17 23:55:00
7:15 PM,84.6,76.8,77,29.94,10.0,East,4.6,-,N/A,,Clear,90,2013-09-18 00:15:00
7:35 PM,83.5,77.0,81,29.94,10.0,East,6.9,-,N/A,,Clear,100,2013-09-18 00:35:00
7:55 PM,83.1,76.6,81,29.94,10.0,East,5.8,-,N/A,,Clear,90,2013-09-18 00:55:00
8:15 PM,82.0,76.6,84,29.94,10.0,East,5.8,-,N/A,,Clear,90,2013-09-18 01:15:00
8:35 PM,81.1,76.5,86,29.95,10.0,East,5.8,-,N/A,,Clear,100,2013-09-18 01:35:00
8:55 PM,80.8,76.5,87,29.95,10.0,East,4.6,-,N/A,,Clear,90,2013-09-18 01:55:00
9:15 PM,80.6,76.5,87,29.96,10.0,Calm,Calm,-,N/A,,Clear,0,2013-09-18 02:15:00
9:35 PM,80.4,76.3,87,29.96,10.0,ENE,4.6,-,N/A,,Clear,70,2013-09-18 02:35:00
9:55 PM,79.9,76.3,89,29.97,10.0,NE,3.5,-,N/A,,Clear,50,2013-09-18 02:55:00
10:15 PM,79.5,76.1,89,29.98,10.0,ENE,3.5,-,N/A,,Clear,60,2013-09-18 03:15:00
10:35 PM,78.4,75.9,92,29.98,10.0,NE,3.5,-,N/A,,Clear,50,2013-09-18 03:35:00
10:55 PM,77.9,75.7,93,29.98,10.0,Calm,Calm,-,N/A,,Clear,0,2013-09-18 03:55:00
11:15 PM,78.1,75.6,92,29.98,10.0,Calm,Calm,-,N/A,,Clear,0,2013-09-18 04:15:00
11:35 PM,78.4,75.7,91,29.99,10.0,Calm,Calm,-,N/A,,Clear,0,2013-09-18 04:35:00
11:55 PM,77.9,75.6,92,29.98,10.0,Calm,Calm,-,N/A,,Clear,0,2013-09-18 04:55:00